• Join FlightAware (Why Join?)
  • Login
  • US Flag 
02:56PM EDT


 

Airport Tracker/Info


-or-


 

Live Flight TrackerFlight Track Log ✈ N588AC ✈ 09-Apr-2013 ✈ KPHF - KBWI

Flight Track Log - Related Links

Times and Time Zones

All times are in EDT time to prevent confusion due to time zone crossing. See the N588AC flight status page for this flight to view local times or setup timezone preferences in your user account.

Time Position Orientation Groundspeed Altitude Reporting Facility
EDT Latitude Longitude Course Direction KTS MPH feet Rate Location/Type
02:44PM 37.1183 -76.5139 239° Southwest 98 113 900  Level Washington Center
02:44PM 37.1036 -76.5450 239° Southwest 178 205 2,000 1,320 Climbing Washington Center
02:45PM 37.0867 -76.5786 238° Southwest 232 267 2,400 1,380 Climbing Washington Center
02:45PM 37.0739 -76.6097 243° Southwest 227 261 3,400 1,560 Climbing Washington Center
02:46PM 37.1003 -76.6856 294° West 254 292 4,800 1,740 Climbing Washington Center
02:47PM 37.1392 -76.7617 303° West 246 283 6,900 2,280 Climbing Washington Center
02:48PM 37.1761 -76.8325 303° West 251 289 9,400 2,400 Climbing Washington Center
02:49PM 37.2131 -76.8983 305° West 244 281 11,700 2,280 Climbing Washington Center
02:50PM 37.2456 -76.9667 301° West 231 266 14,000 1,620 Climbing Washington Center
02:51PM 37.2783 -77.0247 305° West 225 259 15,000 480 Climbing Washington Center
02:52PM 37.3250 -77.1172 302° West 271 312 15,000  Level Washington Center
02:53PM 37.3806 -77.1808 318° Northwest 294 338 15,000  Level Washington Center
02:54PM 37.4400 -77.2503 317° Northwest 294 338 15,000 -60 Level Washington Center
02:55PM 37.4956 -77.3142 299° West 283 326 14,900  Descending Washington Center
02:56PM 37.5728 -77.3081 North 262 302 15,000  Climbing Washington Center
02:57PM 37.6503 -77.2914 10° North 262 302 15,000  Level Washington Center
02:58PM 37.7278 -77.2747 10° North 273 314 15,000  Level Washington Center
02:59PM 37.8050 -77.2581 10° North 278 320 15,000  Level Washington Center
03:00PM 37.8825 -77.2414 10° North 278 320 15,000  Level Washington Center
03:01PM 37.9578 -77.2247 10° North 278 320 15,000  Level Washington Center
03:02PM 38.0414 -77.2106 North 278 320 15,000  Level Washington Center
03:03PM 38.1103 -77.1936 11° North 278 320 15,000 -360 Level Washington Center
03:04PM 38.1964 -77.1664 14° North 278 320 14,300 -900 Descending Washington Center
03:05PM 38.2639 -77.0939 40° Northeast 278 320 13,300 -1,020 Descending Washington Center
03:06PM 38.3317 -77.0211 40° Northeast 301 346 12,300 -960 Descending Washington Center
03:07PM 38.4011 -76.9481 39° Northeast 313 360 11,400 -660 Descending Washington Center
03:08PM 38.4731 -76.8700 40° Northeast 326 375 11,000 -300 Descending Washington Center
03:09PM 38.5383 -76.7994 40° Northeast 326 375 10,900 -780 Descending Washington Center
03:10PM 38.6036 -76.7314 39° Northeast 314 361 9,500 -1,680 Descending Washington Center
03:11PM 38.6625 -76.6658 41° Northeast 297 342 7,600 -1,620 Descending Washington Center
03:12PM 38.7236 -76.6056 38° Northeast 282 325 6,300 -960 Descending Washington Center
03:13PM 38.7667 -76.5667 35° Northeast 267 307 6,100 -720 Descending Potomac TRACON
03:14PM 38.8333 -76.5333 21° North 261 300 5,200 -1,140 Descending Potomac TRACON
03:15PM 38.8833 -76.4833 38° Northeast 248 285 3,900 -1,440 Descending Potomac TRACON
03:16PM 38.9500 -76.4667 11° North 228 262 2,400 -900 Descending Potomac TRACON
03:17PM 39.0000 -76.5000 333° Northwest 219 252 2,100 -180 Descending Potomac TRACON
03:18PM 39.0500 -76.5333 333° Northwest 210 242 2,100 -60 Level Potomac TRACON
03:19PM 39.1000 -76.5833 322° Northwest 203 234 2,000 -480 Descending Potomac TRACON
03:20PM 39.1333 -76.6167 322° Northwest 158 182 1,300 -720 Descending Potomac TRACON
03:21PM 39.1667 -76.6333 339° North 123 142 600 -720 Descending Potomac TRACON
03:23PM 39.1667 -76.6667 339° North  Level FlightAware Approximate
03:30PM 39.1754 -76.6683 339° North  Level Estimated
03:31PM 39.1754 -76.6683 339° North  Level Estimated
03:32PM 39.1754 -76.6683 339° North  Level Estimated
03:33PM 39.1754 -76.6683 339° North  Level Estimated
03:34PM 39.1754 -76.6683 339° North  Level Estimated